STARLINK-1797, 46698

Orbit data source: Space-Track

STARLINK-1797, 46698 is a payload satellite owned by SpaceX/Seattle (US) in LEO that was launched on Sun, 18 Oct 2020 UTC via an FALCON 9 launch vehicle from the Air Force Eastern Test Range (AFETR). Payloads include a variety of satellites, spacecraft, and rockets equipped with specific instruments for various scientific and technological missions. These include communications satellites like Starlink; space stations such as the ISS; scientific satellites like the Hubble; Earth observation satellites from companies like Planet Labs, Umbra, and HawkEye 360; GPS; miniature CubeSats for education and research; and military/defense satellites.

Loading next visibility...
STARLINK-1797 details
Identifier
46698, 2020-073AE
Orbit
LEO
Last TLE update11 hours ago
Origin
Flag of USSpaceX/Seattle (US)
ManufacturerSpaceX/Seattle
MissionOperational Commercial Communications
Bus & MotorSTARLINK, Unknown motor
Mass260 kg wet, ~248 kg dry
Launch date (UTC)
2020-10-18 (4 years ago)
Launch vehicle
FALCON 9
Launch site
Air Force Eastern Test Range (AFETR)
Object type
Payload
Rocket body
Debris
Shape & HBRBox + 1 Pan, 8.86 m
Radar Cross Section13.562 m², Large (>1 m²)

Expand to show TLE details & history

TLE from 11 hours ago
0 STARLINK-1797
1 46698U 20073AE  25024.08338033  .00020061  00000-0  13617-2 0  9995
2 46698  53.0546 280.9910 0000864 138.6800 221.4254 15.06402950235845
Epoch: 2025-01-24T02:00Z
Definitive object data (Epoch: 2025-01-24T02:00:04.06Z)
Latitude-0.00006°
Longitude127.3224°
Altitude548.53 km
Speed7.589 km/s
True Right ascension18h 43m 57s
True Declination0° 00' 00"
Sunlit
Object was in daylight at TLE epoch
Visualization TLE readout
Latitude-53.16049°
Longitude38.58109°
Altitude566.032 km
Speed7.578 km/s
Apparent Right ascension05h 38m 16s
Apparent Declination-80° 33' 52"
Sunlit
Object is in daylight
Visualization observer readout
Local Sidereal Time14:01:20
Azimuth190.833° SSW
Elevation-44.949°
Doppler factor1
Orbital elements
Apogee altitude548.072 km
Perigee altitude546.875 km
Semi-major axis6,925.61 km
Eccentricity0.0000864
Inclination53.0546°
RAAN280.991°
Arg. of periapsis138.68°
True anomaly221.41885°
Mean anomaly221.4254°
Eccentric anomaly221.42212°
Mean motion3.76579 °/min
BSTAR0.0013617
Orbital period95.6 mins
Loading maneuver chart data...
Loading historical data...
Loading historical data...
Loading historical data...
Loading historical data...
Loading historical data...
Loading historical data...
Loading historical data...

STARLINK-1797 Visibility forecast

Observer location: undefined°, undefined

Span
Click to sort rows by Start time (UTC) header in descending order
Start Az.
Max El. time (UTC)
Max El. Az.
Max El.
End time (UTC)
End Az.
6 mins2025-01-24 19:42:26.737Z225.385° WSW2025-01-24 19:45:26.737Z64.83° ENE42.763°2025-01-24 19:48:26.737Z51.769° ENE
4 mins2025-01-24 21:23:26.737Z308.009° NW2025-01-24 21:24:26.737Z327.662° NNW20.215°2025-01-24 21:27:26.737Z22.77° NE
5 mins2025-01-25 00:44:26.737Z343.901° N2025-01-25 00:46:26.737Z20° NNE18.981°2025-01-25 00:49:26.737Z68.452° E
7 mins2025-01-25 02:23:26.737Z312.25° NW2025-01-25 02:26:26.737Z21.311° NNE44.674°2025-01-25 02:30:26.737Z127.51° SE
|